[[{"header":{"parameterUnit":"m.s-1","parameterCategory":2,"la1":30.2991,"la2":30.254,"lo1":-89.0895,"lo2":-89.0444,"dx":0.0017,"dy":0.0017,"nx":28,"ny":28,"refTime":"2022-11-28T15:00:00:Z","depth":"0","parameterNumber":2,"parameterNumberName":"U-component_of_CURRENTS"},"data":[0,0,0,0,0,0,0,0,0,0,0,0,0,0,0,0,0,0,0,0,0,0,0,0,0,0,0,0,0,0,0,0,0,0,0,0,0,0,0,0,0,0,0,0,0,0,0,0,0,0,0,0,0,0,0,0,0,0,0.0684,0.0683,0,0.0657,0.0657,0.0657,0.0651,0.0651,0.0651,0.0651,0.0713,0.0715,0.0716,0,0,0,0,0,0,0,0,0,0,0,0,0,0.0725,0.0724,0.0684,0.0683,0.0683,0.0657,0.0657,0.0657,0.0651,0.0651,0.0651,0.0651,0.0713,0.0715,0.0717,0,0,0,0,0,0,0,0,0,0,0,0,0,0.0705,0.0724,0.0684,0.0675,0.0674,0.0657,0.0657,0.0657,0.0651,0.0651,0.0651,0.0651,0.0712,0.0714,0.0717,0.0731,0,0,0.0724,0.0725,0,0,0,0,0,0,0,0,0.0706,0.0704,0.0677,0.0676,0.0675,0.0656,0.0694,0.0685,0.0651,0.0662,0.0651,0.0651,0.0701,0.0704,0.0701,0.0734,0.0737,0.0724,0.0726,0.0727,0.0728,0,0,0,0,0,0,0,0.0708,0.0705,0.0675,0.0677,0.0675,0.0671,0.0668,0.0692,0.0685,0.0661,0.066,0.0654,0.0701,0.0698,0.0702,0.0738,0.0724,0.0727,0.0728,0.0729,0.0767,0.0766,0,0,0,0,0,0,0.0707,0.0706,0.0676,0.0674,0.0689,0.067,0.0667,0.0663,0.0683,0.0684,0.0654,0.0654,0.0694,0.07,0.0705,0.0734,0.0727,0.0729,0.0731,0.0767,0.0767,0.0766,0,0,0,0,0,0,0.0708,0.0705,0.0677,0.0688,0.0684,0.0669,0.0665,0.0663,0.0662,0.0676,0.068,0.0655,0.0694,0.0701,0.0718,0.0736,0.073,0.0733,0.0768,0.0767,0.0766,0.0787,0,0,0,0,0,0,0.0709,0.0705,0.0713,0.0688,0.0683,0.0668,0.0664,0.0662,0.0657,0.0657,0.0679,0.0684,0.0695,0.0715,0.0721,0.074,0.0735,0.0768,0.0767,0.0767,0.0786,0.0787,0.0787,0,0,0,0,0,0.0711,0.0717,0.0713,0.071,0.069,0.0668,0.0666,0.0657,0.0657,0.0657,0.0666,0.0683,0.0713,0.0716,0.0724,0.0744,0.0769,0.0768,0.0767,0.0786,0.0787,0.0787,0,0,0,0,0,0,0.0752,0.0716,0.0711,0.0711,0.0691,0.0666,0.0671,0.0659,0.0664,0.0671,0.0683,0.0688,0.0702,0.0716,0.0719,0.0747,0.0742,0.0743,0.0755,0.0755,0.0755,0.0855,0.0737,0,0,0,0,0,0.076,0.075,0.072,0.0722,0.0714,0.0693,0.0687,0.0676,0.067,0.0672,0.068,0.0692,0.0703,0.0724,0.0727,0.0757,0.0855,0.077,0.077,0.077,0.0853,0.0987,0.1009,0.0763,0.0763,0.0763,0,0,0.0777,0.0757,0.0753,0.0728,0.0718,0.071,0.0691,0.0681,0.0686,0.0681,0.0698,0.0689,0.0704,0.0723,0.0733,0.0743,0.0884,0.0769,0.077,0.0854,0.0989,0.1014,0.1036,0.0762,0.0762,0.0762,0,0,0.0799,0.0788,0.0785,0.0766,0.0742,0.0728,0.0725,0.0698,0.0702,0.0699,0.0699,0.0722,0.0715,0.0755,0.0769,0.0781,0.0866,0.0749,0.0858,0.0983,0.1007,0.103,0.1169,0.1204,0.0767,0.0767,0.0767,0,0.0828,0.0825,0.0783,0.0774,0.0783,0.0738,0.0754,0.0737,0.0719,0.0767,0.0706,0.0766,0.0748,0.0846,0.083,0.0792,0.0884,0.0854,0.0992,0.1016,0.1039,0.1177,0.1215,0.0768,0.0768,0.0768,0.0768,0,0.0838,0.0845,0.0844,0.0823,0.0817,0.0825,0.0796,0.0806,0.0794,0.0804,0.0871,0.0848,0.092,0.0873,0.0853,0.0999,0.1017,0.0964,0.1008,0.1067,0.1205,0.1245,0.0769,0.0769,0.0769,0.0768,0,0,0.0939,0.0866,0.088,0.0902,0.0859,0.0874,0.0882,0.0932,0.1004,0.0964,0.1091,0.106,0.1087,0.1109,0.1086,0.1175,0.136,0.1148,0.1154,0.1319,0.1678,0.1672,0.1715,0.1334,0.1341,0.1347,0.1706,0,0.0993,0.1002,0.0944,0.0994,0.1029,0.0993,0.1019,0.1051,0.1074,0.117,0.1193,0.1268,0.1163,0.121,0.1285,0.1346,0.1471,0.1272,0.1573,0.1584,0.1598,0.1762,0.1668,0.198,0.1745,0.1752,0.1757,0,0.1085,0.108,0.1124,0.1147,0.1159,0.1168,0.1283,0.129,0.1386,0.1413,0.1508,0.1519,0.1661,0.1531,0.1758,0.1639,0.1697,0.1725,0.1738,0.1779,0.1655,0.1883,0.2062,0.1983,0.1819,0.1814,0.1809,0,0.1279,0.1253,0.1307,0.1305,0.1284,0.1333,0.134,0.1409,0.1466,0.1611,0.1694,0.1826,0.1923,0.2017,0.205,0.1941,0.2303,0.2151,0.2222,0.2221,0.2235,0.2223,0.2414,0.2371,0.237,0.2369,0.2368,0,0.1432,0.1492,0.1402,0.1445,0.1534,0.1482,0.1608,0.1632,0.1715,0.1824,0.1855,0.1983,0.2051,0.2215,0.2218,0.2387,0.2458,0.2343,0.235,0.2229,0.2214,0.2215,0.2135,0.2382,0.2379,0.2377,0.2375,0,0.1667,0.1597,0.1664,0.1635,0.1632,0.1712,0.1723,0.1803,0.1867,0.2023,0.2082,0.2201,0.2398,0.2478,0.2665,0.2628,0.2693,0.279,0.2653,0.2636,0.2556,0.2478,0.2648,0.2578,0.2953,0.2956,0.2958,0,0.1776,0.1829,0.1816,0.1823,0.1807,0.187,0.1896,0.1908,0.1971,0.2136,0.2227,0.2458,0.2566,0.2864,0.29,0.303,0.2853,0.3005,0.2761,0.2649,0.2567,0.2383,0.2294,0.2785,0.2786,0.2786,0.2787,0,0.1952,0.1945,0.1956,0.1987,0.2005,0.2033,0.2066,0.212,0.2146,0.2257,0.2389,0.249,0.2762,0.285,0.3035,0.3057,0.2846,0.3016,0.2953,0.255,0.2319,0.2217,0.2451,0.2791,0.279,0.279,0.279,0.279,0.2029,0.2073,0.2047,0.2087,0.2117,0.2129,0.2122,0.215,0.2213,0.2282,0.2435,0.2521,0.2711,0.2926,0.2978,0.2992,0.2896,0.287,0.2825,0.268,0.2497,0.2757,0.3038,0.3039,0.3039,0.304,0.3041,0,0.2014,0.2044,0.2112,0.2105,0.2138,0.2143,0.2159,0.2108,0.2113,0.2249,0.2326,0.2468,0.2593,0.2724,0.2848,0.2798,0.262,0.2736,0.245,0.2399,0.2719,0.2589,0.2719,0.2719,0.2719,0.2719,0.2719,0.2719,0.1967,0.1991,0.2038,0.206,0.2077,0.2032,0.2,0.1967,0.2003,0.205,0.2112,0.22,0.2414,0.2609,0.264,0.2592,0.2388,0.2322,0.2299,0.2492,0.2498,0.2503,0.2365,0.2446,0.2445,0.1864,0.186,0.1857]},{"header":{"parameterUnit":"m.s-1","parameterCategory":2,"la1":30.2991,"la2":30.254,"lo1":-89.0895,"lo2":-89.0444,"dx":0.0017,"dy":0.0017,"nx":28,"ny":28,"refTime":"2022-11-28T15:00:00:Z","depth":"0","parameterNumber":3,"parameterNumberName":"V-component_of_CURRENTS"},"data":[0,0,0,0,0,0,0,0,0,0,0,0,0,0,0,0,0,0,0,0,0,0,0,0,0,0,0,0,0,0,0,0,0,0,0,0,0,0,0,0,0,0,0,0,0,0,0,0,0,0,0,0,0,0,0,0,0,0,-0.0113,-0.0113,0,-0.0133,-0.0134,-0.0134,-0.0119,-0.0118,-0.0118,-0.0117,-0.0132,-0.0133,-0.0134,0,0,0,0,0,0,0,0,0,0,0,0,0,-0.0058,-0.006,-0.0113,-0.0113,-0.0113,-0.0133,-0.0134,-0.0134,-0.0119,-0.0118,-0.0117,-0.0117,-0.0131,-0.0132,-0.0134,0,0,0,0,0,0,0,0,0,0,0,0,0,-0.0081,-0.006,-0.0113,-0.0108,-0.0108,-0.0133,-0.0134,-0.0134,-0.0119,-0.0118,-0.0117,-0.0116,-0.0131,-0.0132,-0.0134,-0.0164,0,0,-0.0139,-0.0139,0,0,0,0,0,0,0,0,-0.008,-0.0083,-0.0108,-0.0108,-0.0108,-0.0122,-0.012,-0.0144,-0.0119,-0.0115,-0.0117,-0.0116,-0.0129,-0.013,-0.0137,-0.0165,-0.0165,-0.0139,-0.014,-0.014,-0.0141,0,0,0,0,0,0,0,-0.0078,-0.0082,-0.0121,-0.0109,-0.0109,-0.0104,-0.0106,-0.0124,-0.0127,-0.0115,-0.0114,-0.0117,-0.0128,-0.0135,-0.0137,-0.0165,-0.0139,-0.014,-0.0141,-0.0142,-0.021,-0.0211,0,0,0,0,0,0,-0.0077,-0.0081,-0.012,-0.0122,-0.0091,-0.0106,-0.0108,-0.0119,-0.0127,-0.0128,-0.0117,-0.0116,-0.0133,-0.0135,-0.0137,-0.014,-0.014,-0.0142,-0.0143,-0.021,-0.0211,-0.0212,0,0,0,0,0,0,-0.0076,-0.0081,-0.0119,-0.0101,-0.0105,-0.0108,-0.012,-0.012,-0.0126,-0.0129,-0.0129,-0.0123,-0.0133,-0.0135,-0.0159,-0.0141,-0.0142,-0.0144,-0.0208,-0.021,-0.0211,-0.0166,0,0,0,0,0,0,-0.0074,-0.008,-0.0092,-0.0101,-0.0106,-0.0138,-0.0121,-0.0121,-0.0129,-0.0127,-0.0134,-0.0134,-0.0132,-0.0157,-0.016,-0.0144,-0.0145,-0.0207,-0.0209,-0.0211,-0.0167,-0.0166,-0.0165,0,0,0,0,0,-0.0072,-0.0088,-0.0093,-0.0097,-0.0121,-0.0139,-0.0142,-0.014,-0.013,-0.014,-0.0145,-0.0134,-0.0169,-0.0159,-0.0163,-0.0146,-0.0206,-0.0209,-0.0211,-0.0167,-0.0166,-0.0165,0,0,0,0,0,0,-0.0074,-0.0089,-0.0093,-0.0115,-0.0129,-0.0136,-0.0145,-0.0144,-0.0157,-0.0153,-0.0152,-0.0154,-0.0169,-0.0177,-0.0166,-0.0176,-0.0184,-0.0187,-0.015,-0.0149,-0.0148,-0.0055,-0.0146,0,0,0,0,0,-0.0081,-0.0095,-0.011,-0.0129,-0.0135,-0.0142,-0.015,-0.015,-0.016,-0.0163,-0.0172,-0.0179,-0.0183,-0.0181,-0.0201,-0.0207,-0.0177,-0.0201,-0.02,-0.0199,-0.013,-0.0096,-0.0083,-0.0218,-0.0218,-0.0218,0,0,-0.0086,-0.0097,-0.0105,-0.013,-0.0138,-0.0136,-0.0144,-0.0158,-0.0142,-0.0165,-0.0161,-0.0188,-0.0192,-0.0197,-0.0202,-0.0195,-0.0157,-0.0202,-0.02,-0.013,-0.0096,-0.0082,-0.0069,-0.022,-0.0219,-0.0219,0,0,-0.0087,-0.0115,-0.0115,-0.0128,-0.0142,-0.0144,-0.0148,-0.0165,-0.0158,-0.0177,-0.0175,-0.0176,-0.0217,-0.0182,-0.0174,-0.0182,-0.0167,-0.0218,-0.0117,-0.0088,-0.0074,-0.0061,-0.0043,-0.0029,-0.0202,-0.0202,-0.0202,0,-0.0086,-0.0082,-0.0121,-0.012,-0.0102,-0.0143,-0.0115,-0.0132,-0.0153,-0.0112,-0.0174,-0.0155,-0.0187,-0.0106,-0.0119,-0.0169,-0.0161,-0.0117,-0.008,-0.0067,-0.0054,-0.0038,-0.0023,-0.02,-0.02,-0.02,-0.02,0,-0.0074,-0.007,-0.0073,-0.0071,-0.0073,-0.0063,-0.0076,-0.0077,-0.0088,-0.0075,-0.0036,-0.0082,-0.0035,-0.0081,-0.0104,-0.0023,-0.0052,-0.0094,-0.0066,-0.0037,-0.0024,-0.0009,-0.0197,-0.0198,-0.0198,-0.0199,0,0,-0.0021,-0.0051,-0.0042,0.0001,-0.0028,-0.0003,0.0004,0.0059,0.0137,0.0069,0.0184,0.0131,0.0134,0.0145,0.0111,0.0126,0.0169,0.0058,0.0058,0.0106,0.023,0.0219,0.0233,0.0124,0.0128,0.0131,0.0193,0,0.0033,0.0074,0.0035,0.0108,0.0159,0.013,0.0167,0.0198,0.0211,0.0287,0.0272,0.033,0.0211,0.0245,0.024,0.02,0.0217,0.0157,0.0173,0.0175,0.0186,0.0255,0.0181,0.0233,0.0208,0.021,0.0212,0,0.0115,0.014,0.0218,0.0286,0.0306,0.0328,0.0455,0.0475,0.0542,0.0555,0.0602,0.0581,0.0625,0.0492,0.048,0.0441,0.0363,0.0303,0.0302,0.0312,0.0195,0.0203,0.0261,0.009,0.0235,0.0233,0.0231,0,0.0287,0.0305,0.0395,0.0407,0.0439,0.0496,0.0523,0.0588,0.0655,0.0755,0.082,0.084,0.0877,0.0786,0.0643,0.057,0.0614,0.0496,0.0421,0.0417,0.0379,0.0367,0.0316,0.0512,0.0512,0.0512,0.0512,0,0.0428,0.0508,0.0484,0.0548,0.0672,0.0652,0.08,0.0828,0.0906,0.1014,0.0988,0.1077,0.0949,0.0933,0.0761,0.0665,0.071,0.0498,0.046,0.0383,0.0371,0.024,0.0153,0.0514,0.0514,0.0513,0.0513,0,0.0617,0.0598,0.0707,0.0744,0.0762,0.086,0.0921,0.1008,0.1082,0.1223,0.1263,0.1296,0.1265,0.1127,0.101,0.0851,0.0646,0.0681,0.06,0.0553,0.0297,0.0216,0.0241,0.0177,0.0619,0.062,0.062,0,0.0709,0.0782,0.0849,0.0872,0.0883,0.0986,0.1033,0.1099,0.1173,0.134,0.1409,0.1467,0.1479,0.1339,0.1077,0.0856,0.0685,0.0667,0.0522,0.0339,0.0219,0.0176,0.0115,0.046,0.0459,0.0458,0.0457,0,0.0843,0.0864,0.0905,0.0977,0.1026,0.1109,0.1181,0.1273,0.1359,0.1482,0.1607,0.1652,0.1545,0.1327,0.1079,0.0881,0.0548,0.0645,0.048,0.0152,0.0083,-0.0018,0.0348,0.0451,0.0451,0.0452,0.0452,0.0453,0.0877,0.0923,0.0939,0.1019,0.1081,0.1169,0.1251,0.1321,0.1459,0.162,0.1689,0.1761,0.15,0.114,0.0919,0.0455,0.0486,0.0263,0.0198,0.0186,0.0087,0.0457,0.0497,0.0498,0.0498,0.0499,0.05,0,0.0855,0.0886,0.095,0.1026,0.1107,0.1151,0.1284,0.1362,0.1498,0.1649,0.1755,0.1646,0.1277,0.0922,0.0341,0.0047,-0.0073,-0.0114,-0.0234,-0.0263,0.0073,0.0023,-0.0066,-0.0066,-0.0066,-0.0065,-0.0065,-0.0065,0.0811,0.084,0.0895,0.0997,0.1072,0.1184,0.1266,0.1397,0.152,0.168,0.173,0.1768,0.1469,0.0466,-0.023,-0.0387,-0.0577,-0.0601,-0.0648,-0.0505,-0.0477,-0.0451,-0.052,-0.0721,-0.0722,-0.0997,-0.1,-0.1002]}],[{"header":{"parameterUnit":"m.s-1","parameterCategory":2,"la1":30.2991,"la2":30.254,"lo1":-89.0895,"lo2":-89.0444,"dx":0.0017,"dy":0.0017,"nx":28,"ny":28,"refTime":"2022-11-28T15:00:00:Z","depth":"2","parameterNumber":2,"parameterNumberName":"U-component_of_CURRENTS"},"data":[0,0,0,0,0,0,0,0,0,0,0,0,0,0,0,0,0,0,0,0,0,0,0,0,0,0,0,0,0,0,0,0,0,0,0,0,0,0,0,0,0,0,0,0,0,0,0,0,0,0,0,0,0,0,0,0,0,0,0.0353,0.0353,0,0.0363,0.0363,0.0363,0.0382,0.0383,0.0383,0.0383,0.0406,0.0406,0.0407,0,0,0,0,0,0,0,0,0,0,0,0,0,0.0366,0.0365,0.0353,0.0353,0.0353,0.0363,0.0363,0.0363,0.0382,0.0383,0.0383,0.0383,0.0406,0.0406,0.0407,0,0,0,0,0,0,0,0,0,0,0,0,0,0.0367,0.0365,0.0352,0.0363,0.0364,0.0363,0.0363,0.0363,0.0382,0.0383,0.0383,0.0384,0.0406,0.0406,0.0407,0.0401,0,0,0.0408,0.0408,0,0,0,0,0,0,0,0,0.0367,0.0367,0.0361,0.0362,0.0363,0.0371,0.0376,0.0376,0.0382,0.0376,0.0383,0.0384,0.0395,0.0396,0.0398,0.0402,0.0403,0.0408,0.0409,0.0409,0.0409,0,0,0,0,0,0,0,0.0367,0.0366,0.0357,0.0361,0.0362,0.0373,0.0373,0.0376,0.0384,0.0377,0.0378,0.0378,0.0395,0.0397,0.0399,0.0403,0.0408,0.0409,0.0409,0.0409,0.0456,0.0457,0,0,0,0,0,0,0.0363,0.0366,0.0357,0.0358,0.0365,0.0372,0.0373,0.0369,0.0383,0.0386,0.0377,0.0378,0.0396,0.0398,0.04,0.0428,0.0409,0.0409,0.041,0.0455,0.0456,0.0457,0,0,0,0,0,0,0.0363,0.0361,0.0357,0.0362,0.0362,0.0371,0.0367,0.0369,0.0384,0.0383,0.0386,0.0392,0.0397,0.0399,0.0411,0.0428,0.0409,0.041,0.0454,0.0455,0.0457,0.0464,0,0,0,0,0,0,0.0363,0.0361,0.0375,0.0361,0.0361,0.0367,0.0366,0.0369,0.0382,0.0384,0.0396,0.0398,0.0397,0.041,0.0411,0.0428,0.041,0.0453,0.0455,0.0456,0.0462,0.0465,0.0468,0,0,0,0,0,0.0363,0.0378,0.0375,0.0375,0.0373,0.0368,0.0369,0.0377,0.0382,0.0392,0.0397,0.0399,0.0423,0.0411,0.0412,0.043,0.0452,0.0454,0.0456,0.0461,0.0465,0.0468,0,0,0,0,0,0,0.0393,0.0381,0.0377,0.0388,0.0382,0.0371,0.0391,0.0384,0.0396,0.0407,0.0401,0.0403,0.0418,0.0426,0.0413,0.0451,0.0442,0.0444,0.0445,0.0448,0.0451,0.0515,0.0411,0,0,0,0,0,0.0403,0.0414,0.0394,0.0407,0.0406,0.0399,0.0404,0.0403,0.0403,0.0409,0.041,0.0421,0.0426,0.0439,0.0441,0.0462,0.052,0.0479,0.0482,0.0484,0.0538,0.0621,0.0637,0.0464,0.0464,0.0464,0,0,0.042,0.0416,0.0423,0.0416,0.0417,0.0415,0.0405,0.0416,0.0419,0.041,0.0426,0.0423,0.043,0.0447,0.0458,0.046,0.056,0.0486,0.0488,0.0543,0.0625,0.0643,0.0658,0.0466,0.0466,0.0465,0,0,0.0449,0.0454,0.0466,0.0461,0.046,0.0449,0.0452,0.0441,0.0447,0.0445,0.0446,0.0466,0.0458,0.0484,0.049,0.0517,0.0561,0.0509,0.0586,0.0664,0.068,0.0694,0.0777,0.0799,0.0522,0.0522,0.0522,0,0.0471,0.0483,0.0471,0.0475,0.0486,0.0463,0.0476,0.0467,0.0461,0.0495,0.0454,0.0505,0.0483,0.0553,0.055,0.0526,0.0586,0.0564,0.067,0.0685,0.0701,0.0782,0.0807,0.0523,0.0522,0.0522,0.0522,0,0.0492,0.0512,0.0523,0.0519,0.0523,0.0538,0.0515,0.0531,0.0524,0.053,0.0586,0.0565,0.0625,0.0592,0.057,0.0674,0.0686,0.065,0.0663,0.0719,0.08,0.0826,0.0523,0.0523,0.0523,0.0523,0,0,0.0531,0.0537,0.0545,0.0577,0.0557,0.0575,0.058,0.0614,0.0671,0.065,0.0741,0.0716,0.075,0.0764,0.0751,0.0799,0.0909,0.0778,0.0781,0.0866,0.1109,0.0952,0.0965,0.0895,0.0899,0.0903,0.1119,0,0.0563,0.059,0.058,0.0634,0.066,0.0657,0.0675,0.0705,0.0721,0.0796,0.0812,0.0876,0.0801,0.0846,0.0885,0.0924,0.0981,0.0856,0.1041,0.1048,0.0906,0.099,0.0912,0.1084,0.1144,0.1148,0.1151,0,0.0604,0.062,0.0668,0.0736,0.075,0.0772,0.0861,0.0882,0.0958,0.0978,0.1059,0.1074,0.1181,0.1073,0.1219,0.1152,0.1149,0.1147,0.1154,0.1038,0.0939,0.1042,0.1128,0.1194,0.1191,0.1187,0.1185,0,0.0681,0.0711,0.0766,0.0779,0.0817,0.087,0.0903,0.0962,0.0997,0.1137,0.1187,0.131,0.1361,0.1428,0.1387,0.135,0.1505,0.1456,0.1319,0.1309,0.1298,0.1277,0.1553,0.1553,0.1552,0.1551,0.1551,0,0.076,0.0825,0.0815,0.086,0.0942,0.0958,0.1057,0.1112,0.1176,0.1227,0.1318,0.1355,0.1444,0.15,0.1497,0.1488,0.1608,0.1383,0.1367,0.129,0.1267,0.14,0.1379,0.1559,0.1558,0.1556,0.1555,0,0.0857,0.0875,0.0931,0.096,0.099,0.1055,0.1105,0.1136,0.1241,0.1314,0.1367,0.144,0.1531,0.1579,0.1662,0.1591,0.1621,0.1557,0.145,0.1414,0.1369,0.1346,0.1542,0.1539,0.1536,0.1534,0.1532,0,0.0861,0.0905,0.0961,0.0968,0.0992,0.1062,0.1069,0.1165,0.1164,0.1313,0.1319,0.145,0.1455,0.1553,0.1517,0.1566,0.155,0.1446,0.1335,0.141,0.1375,0.1357,0.1339,0.1351,0.1347,0.1345,0.1342,0,0.0808,0.086,0.0877,0.0902,0.0933,0.0983,0.1009,0.1031,0.1118,0.1183,0.1229,0.1283,0.1373,0.1365,0.1382,0.1361,0.1455,0.1383,0.1568,0.1299,0.1228,0.1192,0.1182,0.1318,0.132,0.1322,0.1323,0.1324,0.0673,0.0683,0.0688,0.0749,0.0786,0.0833,0.0868,0.087,0.0911,0.1004,0.1061,0.1153,0.1199,0.1203,0.118,0.1191,0.1249,0.1213,0.1225,0.1239,0.1112,0.1032,0.1066,0.1067,0.1068,0.1068,0.1069,0,0.0426,0.0498,0.0494,0.0559,0.057,0.0691,0.0738,0.0752,0.0768,0.0896,0.0945,0.0914,0.0942,0.1048,0.1033,0.0987,0.1006,0.0952,0.1012,0.1035,0.1056,0.0922,0.0825,0.0825,0.0824,0.0823,0,0,0.0285,0.0247,0.0312,0.03,0.0385,0.0446,0.0502,0.0554,0.0644,0.0705,0.0803,0.091,0.1013,0.0916,0.0886,0.0887,0.0955,0.0845,0.1041,0.1136,0.1157,0.1202,0.1019,0,0,0,0,0]},{"header":{"parameterUnit":"m.s-1","parameterCategory":2,"la1":30.2991,"la2":30.254,"lo1":-89.0895,"lo2":-89.0444,"dx":0.0017,"dy":0.0017,"nx":28,"ny":28,"refTime":"2022-11-28T15:00:00:Z","depth":"2","parameterNumber":3,"parameterNumberName":"V-component_of_CURRENTS"},"data":[0,0,0,0,0,0,0,0,0,0,0,0,0,0,0,0,0,0,0,0,0,0,0,0,0,0,0,0,0,0,0,0,0,0,0,0,0,0,0,0,0,0,0,0,0,0,0,0,0,0,0,0,0,0,0,0,0,0,-0.024,-0.024,0,-0.0259,-0.0259,-0.026,-0.0249,-0.0248,-0.0248,-0.0247,-0.0274,-0.0275,-0.0276,0,0,0,0,0,0,0,0,0,0,0,0,0,-0.0206,-0.0207,-0.024,-0.024,-0.0241,-0.0259,-0.0259,-0.026,-0.0249,-0.0248,-0.0248,-0.0247,-0.0273,-0.0275,-0.0276,0,0,0,0,0,0,0,0,0,0,0,0,0,-0.0223,-0.0207,-0.024,-0.0237,-0.0237,-0.0259,-0.0259,-0.026,-0.0249,-0.0248,-0.0247,-0.0247,-0.0273,-0.0275,-0.0276,-0.0305,0,0,-0.0282,-0.0283,0,0,0,0,0,0,0,0,-0.0222,-0.0224,-0.0237,-0.0237,-0.0237,-0.025,-0.0257,-0.0275,-0.0249,-0.0245,-0.0247,-0.0246,-0.0267,-0.0269,-0.0275,-0.0306,-0.0307,-0.0282,-0.0283,-0.0284,-0.0285,0,0,0,0,0,0,0,-0.0221,-0.0223,-0.0248,-0.0238,-0.0238,-0.0239,-0.024,-0.026,-0.0261,-0.0245,-0.0245,-0.0246,-0.0267,-0.0273,-0.0276,-0.0308,-0.0282,-0.0284,-0.0285,-0.0286,-0.0343,-0.0343,0,0,0,0,0,0,-0.0218,-0.0222,-0.0248,-0.0249,-0.0227,-0.024,-0.0242,-0.0247,-0.0261,-0.0262,-0.0247,-0.0246,-0.0271,-0.0274,-0.0277,-0.0283,-0.0284,-0.0286,-0.0287,-0.0342,-0.0343,-0.0343,0,0,0,0,0,0,-0.0217,-0.022,-0.0247,-0.0235,-0.0239,-0.0241,-0.0248,-0.0248,-0.0255,-0.0262,-0.0263,-0.0253,-0.027,-0.0274,-0.0299,-0.0285,-0.0287,-0.0288,-0.0342,-0.0342,-0.0343,-0.0315,0,0,0,0,0,0,-0.0217,-0.022,-0.0231,-0.0235,-0.0239,-0.0263,-0.0249,-0.0249,-0.0257,-0.0255,-0.0268,-0.0269,-0.027,-0.0296,-0.0301,-0.0288,-0.029,-0.0341,-0.0342,-0.0343,-0.0315,-0.0314,-0.0313,0,0,0,0,0,-0.0215,-0.0228,-0.0231,-0.0235,-0.0251,-0.0264,-0.0267,-0.0265,-0.0258,-0.0267,-0.0275,-0.0269,-0.0303,-0.0299,-0.0304,-0.0291,-0.0341,-0.0342,-0.0343,-0.0315,-0.0314,-0.0313,0,0,0,0,0,0,-0.0221,-0.0228,-0.0232,-0.0247,-0.0258,-0.0262,-0.027,-0.027,-0.0284,-0.0282,-0.0284,-0.0287,-0.0303,-0.031,-0.0305,-0.0311,-0.0317,-0.0319,-0.0295,-0.0294,-0.0293,-0.0252,-0.0291,0,0,0,0,0,-0.0228,-0.0237,-0.0247,-0.026,-0.0265,-0.027,-0.0277,-0.0278,-0.0286,-0.0291,-0.03,-0.0308,-0.0312,-0.0314,-0.033,-0.034,-0.0341,-0.0333,-0.0332,-0.0332,-0.0303,-0.0304,-0.03,-0.0346,-0.0346,-0.0346,0,0,-0.0233,-0.024,-0.0245,-0.0262,-0.0268,-0.0269,-0.0272,-0.0284,-0.0277,-0.0293,-0.0299,-0.0316,-0.0319,-0.0325,-0.0331,-0.0326,-0.0326,-0.0333,-0.0332,-0.0302,-0.0304,-0.0299,-0.0295,-0.0347,-0.0347,-0.0347,0,0,-0.0236,-0.0255,-0.0257,-0.0265,-0.0276,-0.0279,-0.0282,-0.0295,-0.0293,-0.031,-0.0309,-0.0315,-0.034,-0.0324,-0.0319,-0.0327,-0.033,-0.0338,-0.0288,-0.0291,-0.0286,-0.0282,-0.0301,-0.0299,-0.0327,-0.0327,-0.0327,0,-0.024,-0.0242,-0.0262,-0.0262,-0.0257,-0.0279,-0.0269,-0.0279,-0.0298,-0.0283,-0.031,-0.0309,-0.0328,-0.0291,-0.0292,-0.0319,-0.033,-0.0289,-0.0287,-0.0283,-0.0279,-0.0299,-0.0297,-0.0326,-0.0326,-0.0326,-0.0326,0,-0.0237,-0.0239,-0.0242,-0.0242,-0.0245,-0.0247,-0.0252,-0.0259,-0.0266,-0.0262,-0.0251,-0.0278,-0.0256,-0.0278,-0.0287,-0.0257,-0.0278,-0.0294,-0.0283,-0.0272,-0.0295,-0.0293,-0.0324,-0.0325,-0.0325,-0.0325,0,0,-0.0238,-0.0236,-0.0237,-0.0212,-0.0229,-0.0217,-0.0217,-0.0198,-0.0167,-0.02,-0.0152,-0.0176,-0.0174,-0.0168,-0.0182,-0.019,-0.0196,-0.0224,-0.0225,-0.023,-0.0213,-0.0299,-0.0305,-0.0212,-0.0211,-0.021,-0.0249,0,-0.0224,-0.0207,-0.0209,-0.0174,-0.016,-0.0162,-0.0148,-0.0136,-0.0137,-0.0108,-0.0113,-0.0086,-0.0134,-0.0115,-0.013,-0.016,-0.0185,-0.0184,-0.0232,-0.0233,-0.03,-0.0303,-0.0261,-0.0297,-0.0247,-0.0246,-0.0246,0,-0.0214,-0.0201,-0.0168,-0.0112,-0.0102,-0.008,-0.0031,-0.0013,0.0011,0.0013,0.0039,0.003,0.0056,-0.0013,-0.0046,-0.0042,-0.0121,-0.0173,-0.0176,-0.0254,-0.0314,-0.0297,-0.0296,-0.0243,-0.0243,-0.0243,-0.0244,0,-0.0192,-0.0157,-0.0117,-0.0106,-0.0066,-0.0027,0.0007,0.0029,0.0044,0.0114,0.0132,0.0152,0.0156,0.0103,-0.0014,-0.0014,-0.0095,-0.0105,-0.0265,-0.0273,-0.0242,-0.025,-0.0161,-0.0161,-0.0161,-0.0161,-0.0161,0,-0.0167,-0.0127,-0.0094,-0.007,-0.0007,0.0025,0.0085,0.0122,0.0149,0.0172,0.0219,0.0212,0.0178,0.0116,0.0025,-0.0117,-0.0063,-0.0248,-0.0282,-0.0239,-0.0245,-0.0194,-0.0197,-0.0162,-0.0162,-0.0162,-0.0162,0,-0.0158,-0.0126,-0.0077,-0.0023,0.0003,0.0056,0.0107,0.0124,0.0194,0.0225,0.0254,0.0254,0.0196,0.0115,0.0,-0.0089,-0.0199,-0.0288,-0.0249,-0.0279,-0.0377,-0.0379,-0.0404,-0.0407,-0.041,-0.0412,-0.0414,0,-0.0157,-0.0141,-0.0076,-0.005,-0.0019,0.0045,0.0056,0.0127,0.0137,0.0216,0.0219,0.0196,0.0149,-0.0015,-0.0158,-0.0299,-0.0324,-0.0386,-0.038,-0.0368,-0.0399,-0.0396,-0.0394,-0.0332,-0.0333,-0.0334,-0.0334,0,-0.0178,-0.0156,-0.0126,-0.0091,-0.0048,-0.0013,0.0033,0.0056,0.0133,0.0186,0.0214,0.0206,0.0051,-0.0072,-0.0276,-0.0373,-0.0334,-0.0414,-0.0385,-0.0298,-0.0309,-0.0337,-0.0335,-0.0342,-0.0341,-0.0341,-0.034,-0.034,-0.0211,-0.0206,-0.0172,-0.013,-0.0088,-0.0042,0.0025,0.0065,0.0138,0.0266,0.018,0.0224,0.0046,-0.0172,-0.0336,-0.046,-0.0475,-0.0489,-0.0481,-0.0473,-0.0479,-0.0497,-0.0566,-0.0567,-0.0567,-0.0568,-0.0568,0,-0.0257,-0.0229,-0.0221,-0.0138,-0.0102,-0.0058,0.0019,0.011,0.0245,0.0287,0.033,0.0186,0.0027,-0.0133,-0.033,-0.0497,-0.0451,-0.0523,-0.0413,-0.0406,-0.04,-0.0397,-0.0465,-0.0465,-0.0465,-0.0465,0,0,-0.0248,-0.0238,-0.0233,-0.0153,-0.0097,0.0027,0.0109,0.0248,0.0345,0.0433,0.0456,0.0361,0.012,-0.0009,-0.0228,-0.032,-0.0307,-0.0332,-0.0402,-0.0238,-0.0229,-0.0379,-0.0369,0,0,0,0,0]}],[{"header":{"parameterUnit":"m.s-1","parameterCategory":2,"la1":30.2991,"la2":30.254,"lo1":-89.0895,"lo2":-89.0444,"dx":0.0017,"dy":0.0017,"nx":28,"ny":28,"refTime":"2022-11-28T15:00:00:Z","depth":"4","parameterNumber":2,"parameterNumberName":"U-component_of_CURRENTS"},"data":[0,0,0,0,0,0,0,0,0,0,0,0,0,0,0,0,0,0,0,0,0,0,0,0,0,0,0,0,0,0,0,0,0,0,0,0,0,0,0,0,0,0,0,0,0,0,0,0,0,0,0,0,0,0,0,0,0,0,0.003,0.003,0,0.0043,0.0043,0.0043,0.0055,0.0055,0.0055,0.0056,0.0021,0.002,0.0019,0,0,0,0,0,0,0,0,0,0,0,0,0,-0.0017,-0.0016,0.003,0.003,0.0031,0.0042,0.0043,0.0043,0.0055,0.0055,0.0055,0.0056,0.0021,0.002,0.0019,0,0,0,0,0,0,0,0,0,0,0,0,0,-0.0001,-0.0016,0.003,0.0039,0.004,0.0042,0.0043,0.0043,0.0055,0.0055,0.0055,0.0056,0.0022,0.002,0.0019,0.0001,0,0,0.0013,0.0013,0,0,0,0,0,0,0,0,-0.0001,0.0001,0.0037,0.0038,0.0039,0.0048,0.0013,0.0027,0.0055,0.0048,0.0056,0.0056,0.0026,0.0024,0.0025,-0.0001,-0.0002,0.0013,0.0012,0.0011,0.0011,0,0,0,0,0,0,0,-0.0003,0.0,0.0034,0.0037,0.0039,0.003,0.0033,0.0016,0.0033,0.0049,0.005,0.0052,0.0026,0.0027,0.0024,-0.0003,0.0013,0.0012,0.0011,0.001,-0.0017,-0.0017,0,0,0,0,0,0,-0.0001,-0.0,0.0034,0.0035,0.002,0.0031,0.0034,0.0044,0.0035,0.0034,0.0052,0.0053,0.0029,0.0026,0.0023,0.0028,0.0011,0.001,0.0009,-0.0018,-0.0017,-0.0017,0,0,0,0,0,0,-0.0002,0.0002,0.0033,0.0017,0.0021,0.0032,0.0043,0.0044,0.0054,0.0038,0.0036,0.0061,0.003,0.0025,0.0017,0.0025,0.0009,0.0007,-0.0018,-0.0017,-0.0017,0.002,0,0,0,0,0,0,-0.0003,0.0002,0.0007,0.0018,0.0022,0.0043,0.0043,0.0044,0.0055,0.0056,0.0045,0.0042,0.003,0.0019,0.0015,0.0023,0.0006,-0.0018,-0.0018,-0.0017,0.0018,0.0022,0.0024,0,0,0,0,0,-0.0005,0.0,0.0007,0.0011,0.0029,0.0043,0.0045,0.0052,0.0055,0.0062,0.0054,0.0043,0.002,0.0018,0.0013,0.002,-0.0019,-0.0018,-0.0017,0.0017,0.0021,0.0024,0,0,0,0,0,0,-0.0024,0.0003,0.001,0.0021,0.0035,0.0046,0.0047,0.0057,0.0057,0.0055,0.0043,0.0039,0.0036,0.0021,0.002,0.0015,-0.0,-0.0,0.0028,0.0031,0.0034,0.0069,0.0005,0,0,0,0,0,-0.0024,-0.0009,0.0011,0.0019,0.0026,0.0039,0.0044,0.0053,0.0056,0.0057,0.0052,0.0041,0.0033,0.0027,0.0015,0.0009,0.0016,0.0011,0.0014,0.0017,0.0042,0.0074,0.0082,-0.0015,-0.0015,-0.0015,0,0,-0.0032,-0.0014,-0.0008,0.0017,0.0025,0.0037,0.0043,0.0055,0.0066,0.005,0.0058,0.005,0.0033,0.003,0.0028,0.0021,0.004,0.0018,0.002,0.0044,0.0075,0.0085,0.0094,-0.0014,-0.0014,-0.0014,0,0,-0.0037,-0.0021,-0.001,0.0005,0.0025,0.0035,0.0042,0.006,0.0069,0.0075,0.0069,0.0077,0.0053,0.0058,0.0052,0.0065,0.0055,0.005,0.0094,0.0124,0.0133,0.0141,0.0131,0.0138,0.0052,0.0052,0.0052,0,-0.0051,-0.0024,-0.0007,0.0008,0.0023,0.0036,0.0053,0.006,0.0074,0.0095,0.008,0.0087,0.0073,0.0087,0.0097,0.0074,0.0078,0.008,0.013,0.0138,0.0146,0.0135,0.0142,0.0054,0.0054,0.0054,0.0053,0,-0.0043,-0.0022,-0.0016,0.0013,0.0028,0.0043,0.0063,0.0082,0.0094,0.0113,0.0136,0.0122,0.0139,0.0125,0.0116,0.016,0.0137,0.0131,0.0126,0.0159,0.0143,0.015,0.0057,0.0056,0.0055,0.0055,0,0,-0.0082,-0.0019,-0.0021,0.0013,0.0037,0.006,0.0077,0.0118,0.0152,0.0157,0.0199,0.0195,0.0211,0.0208,0.0193,0.0218,0.0262,0.0205,0.0206,0.0204,0.0306,0.0283,0.0288,0.0269,0.0271,0.0272,0.0262,0,-0.0083,-0.0037,-0.0012,0.0031,0.0061,0.009,0.0118,0.0155,0.0177,0.0216,0.0223,0.0245,0.0231,0.0241,0.0269,0.0266,0.0288,0.0264,0.0268,0.0268,0.0252,0.0299,0.0279,0.0267,0.0269,0.027,0.0271,0,-0.0091,-0.0049,-0.0002,0.0081,0.0097,0.0129,0.0198,0.0223,0.0274,0.0291,0.0321,0.0319,0.0352,0.0331,0.0364,0.035,0.0347,0.0337,0.0336,0.0318,0.0261,0.0234,0.0283,0.0282,0.0281,0.028,0.028,0,-0.0107,-0.0043,0.0006,0.0028,0.0111,0.0157,0.0207,0.0262,0.0281,0.0343,0.0355,0.0396,0.0404,0.0423,0.0404,0.0395,0.0427,0.0405,0.0376,0.0371,0.0376,0.0368,0.0449,0.0449,0.0449,0.0449,0.0449,0,-0.0109,-0.0067,0.0017,0.0049,0.0115,0.0182,0.0244,0.0295,0.0344,0.0368,0.0402,0.0408,0.0435,0.0438,0.0429,0.0424,0.0449,0.0405,0.0387,0.0384,0.0378,0.0379,0.0371,0.0449,0.0449,0.0449,0.0449,0,-0.0125,-0.0077,-0.002,0.0079,0.0111,0.0162,0.0244,0.0274,0.0344,0.0367,0.0381,0.0424,0.0443,0.0438,0.0457,0.0447,0.0442,0.043,0.041,0.0386,0.0355,0.0349,0.0409,0.0409,0.0408,0.0408,0.0408,0,-0.0121,-0.0092,-0.0019,-0.0004,0.0048,0.0125,0.0158,0.0252,0.0271,0.0361,0.0358,0.0402,0.0419,0.0429,0.044,0.0428,0.0421,0.0418,0.042,0.0385,0.0361,0.0355,0.0349,0.0407,0.0407,0.0407,0.0407,0,-0.0123,-0.0109,-0.0071,-0.0041,-0.0003,0.0039,0.0113,0.0135,0.0232,0.027,0.0342,0.0377,0.0398,0.042,0.0417,0.0404,0.0427,0.0414,0.0415,0.0417,0.0383,0.0358,0.0353,0.0406,0.0406,0.0406,0.0406,0,-0.0149,-0.014,-0.0112,-0.0077,-0.0059,-0.002,0.0031,0.0096,0.0147,0.0263,0.0278,0.0345,0.0392,0.0406,0.0397,0.0395,0.0391,0.0389,0.039,0.0392,0.0394,0.0349,0.0368,0,0,0,0,0,-0.0167,-0.0158,-0.0145,-0.0102,-0.0091,-0.006,-0.0002,0.0049,0.0143,0.018,0.0246,0.0271,0.0324,0.0354,0.0346,0.0364,0.0369,0.0353,0.0361,0.0398,0.04,0.0404,0,0,0,0,0,0,-0.0188,-0.018,-0.0155,-0.0135,-0.0109,-0.0076,-0.0034,0.0033,0.0076,0.0165,0.0187,0.0251,0.0284,0.0314,0.0337,0.0342,0.0344,0.0386,0.0386,0.0398,0.0399,0.04,0.0405,0,0,0,0,0]},{"header":{"parameterUnit":"m.s-1","parameterCategory":2,"la1":30.2991,"la2":30.254,"lo1":-89.0895,"lo2":-89.0444,"dx":0.0017,"dy":0.0017,"nx":28,"ny":28,"refTime":"2022-11-28T15:00:00:Z","depth":"4","parameterNumber":3,"parameterNumberName":"V-component_of_CURRENTS"},"data":[0,0,0,0,0,0,0,0,0,0,0,0,0,0,0,0,0,0,0,0,0,0,0,0,0,0,0,0,0,0,0,0,0,0,0,0,0,0,0,0,0,0,0,0,0,0,0,0,0,0,0,0,0,0,0,0,0,0,0.0259,0.0259,0,0.0237,0.0236,0.0236,0.0183,0.0182,0.0182,0.0181,0.0139,0.0139,0.0138,0,0,0,0,0,0,0,0,0,0,0,0,0,0.0207,0.0208,0.0259,0.0259,0.0259,0.0237,0.0236,0.0236,0.0184,0.0182,0.0181,0.018,0.0139,0.0139,0.0138,0,0,0,0,0,0,0,0,0,0,0,0,0,0.021,0.0209,0.0259,0.0232,0.0229,0.0237,0.0236,0.0236,0.0184,0.0182,0.0181,0.018,0.0139,0.0139,0.0138,0.0163,0,0,0.0137,0.0137,0,0,0,0,0,0,0,0,0.021,0.0211,0.0236,0.0234,0.0231,0.0213,0.0203,0.0211,0.0184,0.0199,0.0181,0.0179,0.0165,0.0162,0.0158,0.0161,0.0159,0.0137,0.0137,0.0137,0.0136,0,0,0,0,0,0,0,0.021,0.0212,0.0248,0.0236,0.0233,0.0204,0.0203,0.0204,0.0187,0.0197,0.0194,0.0196,0.0163,0.0158,0.0156,0.0158,0.0137,0.0137,0.0136,0.0136,0.0152,0.0153,0,0,0,0,0,0,0.0221,0.0212,0.0249,0.0248,0.0219,0.0206,0.0205,0.0219,0.0188,0.0182,0.0197,0.0193,0.016,0.0157,0.0155,0.0127,0.0137,0.0136,0.0136,0.0151,0.0152,0.0153,0,0,0,0,0,0,0.0221,0.0225,0.025,0.023,0.0231,0.0209,0.0224,0.0219,0.0209,0.0188,0.0181,0.0192,0.0159,0.0155,0.0161,0.0127,0.0136,0.0136,0.0151,0.0152,0.0153,0.0106,0,0,0,0,0,0,0.0219,0.0226,0.0237,0.0232,0.0233,0.0257,0.0226,0.022,0.0213,0.0208,0.0182,0.0177,0.0157,0.0162,0.016,0.0126,0.0135,0.015,0.0151,0.0152,0.0107,0.0105,0.0104,0,0,0,0,0,0.0218,0.0236,0.0238,0.0242,0.0251,0.0258,0.0257,0.0234,0.0215,0.0218,0.0203,0.0177,0.0168,0.0163,0.0161,0.0125,0.0149,0.0151,0.0152,0.0107,0.0106,0.0104,0,0,0,0,0,0,0.0219,0.0233,0.0234,0.0257,0.0261,0.025,0.0249,0.0239,0.0229,0.0219,0.0195,0.019,0.0177,0.0178,0.0173,0.014,0.0151,0.0152,0.0117,0.0116,0.0114,0.0063,0.0135,0,0,0,0,0,0.0229,0.0243,0.0254,0.0271,0.0275,0.0264,0.0263,0.0252,0.0244,0.0237,0.0224,0.0208,0.0186,0.0173,0.0169,0.0159,0.0132,0.0137,0.0136,0.0134,0.0095,0.0052,0.0042,0.0158,0.0158,0.0158,0,0,0.0232,0.0243,0.025,0.0272,0.0269,0.0263,0.0259,0.026,0.0236,0.0237,0.021,0.021,0.0188,0.0167,0.016,0.0158,0.0093,0.0136,0.0134,0.0095,0.0052,0.004,0.003,0.0159,0.0159,0.0159,0,0,0.0231,0.0259,0.0261,0.0267,0.0272,0.0267,0.027,0.0269,0.0249,0.0244,0.0222,0.0199,0.0197,0.0149,0.0127,0.0122,0.0095,0.0138,0.0072,0.0033,0.0021,0.001,-0.0026,-0.004,0.0128,0.0127,0.0127,0,0.0226,0.0231,0.0262,0.0259,0.0243,0.0267,0.0244,0.0241,0.0239,0.0203,0.0232,0.0176,0.0167,0.0085,0.008,0.0106,0.0094,0.0073,0.0025,0.0014,0.0004,-0.0031,-0.0046,0.0125,0.0126,0.0126,0.0126,0,0.0217,0.0216,0.0218,0.0215,0.0214,0.0204,0.0204,0.0195,0.0185,0.0164,0.0111,0.0112,0.0059,0.0066,0.0065,-0.0016,0.0003,0.0033,0.0016,-0.0012,-0.0045,-0.0059,0.0122,0.0123,0.0124,0.0124,0,0,0.017,0.0201,0.0191,0.017,0.0178,0.0167,0.0138,0.0091,0.0043,0.0053,-0.0024,-0.0055,-0.0057,-0.0082,-0.0078,-0.0112,-0.0182,-0.0073,-0.0074,-0.0134,-0.0266,-0.0176,-0.0182,-0.0152,-0.0155,-0.0157,-0.0257,0,0.0125,0.0109,0.0129,0.0082,0.006,0.0065,0.0031,-0.0001,-0.0019,-0.0064,-0.0097,-0.0141,-0.0111,-0.0133,-0.0168,-0.0169,-0.0223,-0.0159,-0.0211,-0.0213,-0.015,-0.0197,-0.0166,-0.0268,-0.0271,-0.0274,-0.0275,0,0.0062,0.0061,0.001,-0.0013,-0.0025,-0.0053,-0.0132,-0.0151,-0.0201,-0.0213,-0.0265,-0.0258,-0.0328,-0.0271,-0.0346,-0.0296,-0.0308,-0.0303,-0.0306,-0.0227,-0.015,-0.0234,-0.0301,-0.0299,-0.0297,-0.0296,-0.0294,0,-0.0039,-0.0047,-0.01,-0.0108,-0.0115,-0.0169,-0.0183,-0.0227,-0.0246,-0.0318,-0.0319,-0.0395,-0.0405,-0.0444,-0.0419,-0.0392,-0.047,-0.0433,-0.0381,-0.0374,-0.0408,-0.0396,-0.0524,-0.0523,-0.0523,-0.0523,-0.0523,0,-0.0127,-0.0169,-0.0156,-0.019,-0.025,-0.0251,-0.0325,-0.0341,-0.0368,-0.0367,-0.0404,-0.0398,-0.0441,-0.0458,-0.0466,-0.0457,-0.0519,-0.0426,-0.0406,-0.0418,-0.0406,-0.0418,-0.0404,-0.0527,-0.0526,-0.0525,-0.0524,0,-0.0214,-0.0222,-0.0262,-0.0283,-0.0301,-0.0342,-0.0353,-0.036,-0.0409,-0.0404,-0.0418,-0.0423,-0.0421,-0.0452,-0.0499,-0.0493,-0.0514,-0.0503,-0.0527,-0.05,-0.039,-0.0377,-0.0486,-0.0484,-0.0482,-0.048,-0.0479,0,-0.0228,-0.0271,-0.0304,-0.0296,-0.0305,-0.0353,-0.0342,-0.0385,-0.0361,-0.0382,-0.0345,-0.0372,-0.0359,-0.0376,-0.0419,-0.0474,-0.0456,-0.0509,-0.0459,-0.0423,-0.0392,-0.0382,-0.0372,-0.0476,-0.0476,-0.0475,-0.0475,0,-0.0216,-0.0253,-0.0254,-0.0266,-0.0272,-0.0264,-0.026,-0.0259,-0.0269,-0.0318,-0.0266,-0.0287,-0.0275,-0.0307,-0.0352,-0.0382,-0.05,-0.0491,-0.0494,-0.0447,-0.0413,-0.0381,-0.0374,-0.0469,-0.0469,-0.047,-0.047,0,-0.0155,-0.0149,-0.0162,-0.0185,-0.0168,-0.0144,-0.0176,-0.013,-0.015,-0.0173,-0.0155,-0.0179,-0.0224,-0.0258,-0.0293,-0.032,-0.0318,-0.0345,-0.0357,-0.0364,-0.0277,-0.0212,-0.022,0,0,0,0,0,-0.007,-0.0072,-0.0052,-0.0074,-0.0059,-0.0086,-0.0068,-0.0091,-0.0138,-0.0071,-0.0119,-0.0098,-0.0137,-0.0173,-0.0177,-0.025,-0.0327,-0.0259,-0.0365,-0.0434,-0.0441,-0.0349,0,0,0,0,0,0,-0.0003,0.0013,-0.0025,0.0017,0.0013,0.0024,0.0026,-0.0003,0.0018,-0.0031,-0.004,-0.0111,-0.014,-0.0128,-0.0181,-0.0196,-0.0265,-0.0303,-0.0303,-0.043,-0.0437,-0.0442,-0.035,0,0,0,0,0]}]]